When you browse on this site, cookies collect data to enhance your experience and personalize the content and advertising you see.
Visit our Privacy Policy to learn more. By continuing to use the site, you agree to this use of cookies and data.
  • In Österreich
  • Länderverzeichnis
  • Für 7 Tage
  • Wassertemperatur
  • Satellitenkarten
  • Wetterkarte
  • News
  • Widgets
  • user-avatar
    Anmelden

    Stündliche Wetter Rojtokmuzsaj

    Heute, 19 Juli, Freitag

    Zeit Temperatur Niederschläge Wind Luftdruck Luftfeuchtigkeit
    00:00 +18°C° 0 mm 2 m/S 746 mmHg 78%
    01:00 +18°C° 0 mm 2 m/S 746 mmHg 81%
    02:00 +18°C° 0 mm 2 m/S 746 mmHg 80%
    03:00 +17°C° 0 mm 2 m/S 746 mmHg 79%
    04:00 +17°C° 0 mm 2 m/S 746 mmHg 78%
    05:00 +19°C° 0 mm 2 m/S 746 mmHg 73%
    06:00 +21°C° 0 mm 1 m/S 746 mmHg 68%
    07:00 +23°C° 0 mm 1 m/S 747 mmHg 60%
    08:00 +25°C° 0 mm 1 m/S 747 mmHg 54%
    09:00 +27°C° 0 mm 1 m/S 747 mmHg 47%
    10:00 +29°C° 0 mm 1 m/S 747 mmHg 41%
    11:00 +30°C° 0 mm 1 m/S 746 mmHg 37%
    12:00 +31°C° 0 mm 2 m/S 746 mmHg 34%
    13:00 +31°C° 0 mm 2 m/S 747 mmHg 30%
    14:00 +31°C° 0.1 mm 2 m/S 746 mmHg 33%
    15:00 +30°C° 0.1 mm 2 m/S 746 mmHg 35%
    16:00 +30°C° 0.1 mm 2 m/S 746 mmHg 37%
    17:00 +28°C° 0.1 mm 3 m/S 746 mmHg 47%
    18:00 +26°C° 0.1 mm 3 m/S 746 mmHg 57%
    19:00 +22°C° 0.1 mm 3 m/S 746 mmHg 67%
    20:00 +22°C° 0 mm 3 m/S 746 mmHg 71%
    21:00 +21°C° 0 mm 3 m/S 747 mmHg 74%
    22:00 +20°C° 0 mm 3 m/S 747 mmHg 78%
    23:00 +19°C° 0 mm 3 m/S 747 mmHg 79%

    Morgen, 20 Juli, Samstag

    Zeit Temperatur Niederschläge Wind Luftdruck Luftfeuchtigkeit
    00:00 +19°C° 0 mm 2 m/S 747 mmHg 81%
    01:00 +19°C° 0 mm 2 m/S 747 mmHg 82%
    02:00 +18°C° 0.1 mm 2 m/S 747 mmHg 83%
    03:00 +19°C° 0.1 mm 1 m/S 747 mmHg 84%
    04:00 +19°C° 0.1 mm 1 m/S 747 mmHg 86%
    05:00 +20°C° 0 mm 1 m/S 747 mmHg 81%
    06:00 +21°C° 0 mm 1 m/S 747 mmHg 76%
    07:00 +23°C° 0 mm 1 m/S 747 mmHg 71%
    08:00 +25°C° 0 mm 1 m/S 748 mmHg 64%
    09:00 +27°C° 0 mm 2 m/S 748 mmHg 57%
    10:00 +29°C° 0 mm 2 m/S 748 mmHg 50%
    11:00 +30°C° 0 mm 3 m/S 748 mmHg 46%
    12:00 +31°C° 0 mm 3 m/S 747 mmHg 41%
    13:00 +34°C° 0 mm 4 m/S 747 mmHg 37%
    14:00 +34°C° 0 mm 4 m/S 747 mmHg 37%
    15:00 +34°C° 0 mm 4 m/S 747 mmHg 37%
    16:00 +34°C° 0 mm 5 m/S 747 mmHg 38%
    17:00 +33°C° 0 mm 4 m/S 747 mmHg 43%
    18:00 +30°C° 0 mm 4 m/S 747 mmHg 48%
    19:00 +29°C° 0 mm 3 m/S 747 mmHg 53%
    20:00 +28°C° 0 mm 3 m/S 747 mmHg 56%
    21:00 +26°C° 0 mm 3 m/S 747 mmHg 60%
    22:00 +25°C° 0 mm 4 m/S 748 mmHg 63%
    23:00 +24°C° 0 mm 3 m/S 748 mmHg 67%

    übermorgen, 21 Juli, Sonntag

    Zeit Temperatur Niederschläge Wind Luftdruck Luftfeuchtigkeit
    00:00 +22°C° 0 mm 3 m/S 748 mmHg 71%
    01:00 +23°C° 0 mm 2 m/S 748 mmHg 75%
    02:00 +21°C° 0 mm 2 m/S 748 mmHg 75%
    03:00 +21°C° 0 mm 2 m/S 748 mmHg 76%
    04:00 +21°C° 0 mm 1 m/S 748 mmHg 77%
    05:00 +23°C° 0 mm 1 m/S 748 mmHg 72%
    06:00 +24°C° 0 mm 1 m/S 748 mmHg 67%
    07:00 +26°C° 0 mm 1 m/S 748 mmHg 62%
    08:00 +28°C° 0 mm 1 m/S 749 mmHg 55%
    09:00 +30°C° 0 mm 2 m/S 749 mmHg 49%
    10:00 +32°C° 0 mm 2 m/S 749 mmHg 42%
    11:00 +34°C° 0 mm 3 m/S 749 mmHg 40%
    12:00 +35°C° 0 mm 4 m/S 749 mmHg 37%
    13:00 +36°C° 0 mm 5 m/S 749 mmHg 34%
    14:00 +32°C° 0.4 mm 5 m/S 749 mmHg 45%
    15:00 +28°C° 0.4 mm 5 m/S 749 mmHg 56%
    16:00 +25°C° 0.4 mm 5 m/S 750 mmHg 68%
    17:00 +23°C° 0.3 mm 4 m/S 750 mmHg 71%
    18:00 +24°C° 0.3 mm 2 m/S 750 mmHg 75%
    19:00 +21°C° 0.3 mm 0 m/S 750 mmHg 78%
    20:00 +22°C° 0 mm 1 m/S 751 mmHg 79%
    21:00 +21°C° 0 mm 2 m/S 751 mmHg 79%
    22:00 +21°C° 0 mm 2 m/S 751 mmHg 80%
    23:00 +21°C° 0 mm 3 m/S 752 mmHg 80%

    22 Juli, Montag

    Zeit Temperatur Niederschläge Wind Luftdruck Luftfeuchtigkeit
    00:00 +21°C° 0 mm 3 m/S 752 mmHg 79%
    01:00 +21°C° 0 mm 4 m/S 752 mmHg 79%
    02:00 +20°C° 0 mm 4 m/S 752 mmHg 80%
    03:00 +20°C° 0 mm 3 m/S 752 mmHg 81%
    04:00 +19°C° 0 mm 3 m/S 752 mmHg 82%
    05:00 +21°C° 0 mm 4 m/S 752 mmHg 77%
    06:00 +22°C° 0 mm 4 m/S 752 mmHg 71%
    07:00 +23°C° 0 mm 4 m/S 753 mmHg 65%
    08:00 +26°C° 0 mm 4 m/S 753 mmHg 57%
    09:00 +27°C° 0 mm 4 m/S 753 mmHg 50%
    10:00 +29°C° 0 mm 4 m/S 753 mmHg 43%
    11:00 +29°C° 0 mm 4 m/S 753 mmHg 40%
    12:00 +30°C° 0 mm 4 m/S 753 mmHg 38%
    13:00 +32°C° 0 mm 4 m/S 752 mmHg 35%
    14:00 +32°C° 0 mm 4 m/S 752 mmHg 35%
    15:00 +32°C° 0 mm 4 m/S 752 mmHg 34%
    16:00 +32°C° 0 mm 5 m/S 751 mmHg 33%
    17:00 +30°C° 0 mm 4 m/S 751 mmHg 38%
    18:00 +28°C° 0 mm 3 m/S 751 mmHg 43%
    19:00 +26°C° 0 mm 3 m/S 751 mmHg 48%
    20:00 +25°C° 0 mm 2 m/S 752 mmHg 53%
    21:00 +24°C° 0 mm 2 m/S 752 mmHg 58%
    22:00 +21°C° 0 mm 2 m/S 752 mmHg 63%
    23:00 +21°C° 0 mm 2 m/S 752 mmHg 65%

    23 Juli, Dienstag

    Zeit Temperatur Niederschläge Wind Luftdruck Luftfeuchtigkeit
    00:00 +20°C° 0 mm 2 m/S 752 mmHg 67%
    01:00 +20°C° 0 mm 2 m/S 752 mmHg 70%
    02:00 +19°C° 0 mm 2 m/S 752 mmHg 71%
    03:00 +19°C° 0 mm 2 m/S 751 mmHg 72%
    04:00 +19°C° 0 mm 2 m/S 751 mmHg 72%
    05:00 +20°C° 0 mm 2 m/S 751 mmHg 67%
    06:00 +22°C° 0 mm 3 m/S 752 mmHg 62%
    07:00 +24°C° 0 mm 3 m/S 752 mmHg 56%
    08:00 +26°C° 0 mm 4 m/S 752 mmHg 50%
    09:00 +27°C° 0 mm 4 m/S 752 mmHg 44%
    10:00 +29°C° 0 mm 4 m/S 752 mmHg 38%
    11:00 +30°C° 0 mm 5 m/S 751 mmHg 37%
    12:00 +30°C° 0 mm 5 m/S 751 mmHg 35%
    13:00 +32°C° 0 mm 5 m/S 751 mmHg 34%
    14:00 +32°C° 0 mm 5 m/S 750 mmHg 35%
    15:00 +32°C° 0 mm 5 m/S 750 mmHg 35%
    16:00 +32°C° 0 mm 5 m/S 750 mmHg 36%
    17:00 +30°C° 0 mm 4 m/S 750 mmHg 40%
    18:00 +29°C° 0 mm 4 m/S 750 mmHg 44%
    19:00 +27°C° 0 mm 3 m/S 750 mmHg 48%
    20:00 +26°C° 0 mm 3 m/S 750 mmHg 53%
    21:00 +24°C° 0 mm 2 m/S 750 mmHg 59%
    22:00 +22°C° 0 mm 1 m/S 750 mmHg 65%
    23:00 +22°C° 0 mm 1 m/S 750 mmHg 67%

    24 Juli, Mittwoch

    Zeit Temperatur Niederschläge Wind Luftdruck Luftfeuchtigkeit
    00:00 +21°C° 0 mm 1 m/S 750 mmHg 69%
    01:00 +21°C° 0 mm 1 m/S 750 mmHg 72%
    02:00 +21°C° 0 mm 1 m/S 750 mmHg 72%
    03:00 +20°C° 0 mm 1 m/S 750 mmHg 73%
    04:00 +19°C° 0 mm 2 m/S 750 mmHg 74%
    05:00 +21°C° 0 mm 2 m/S 750 mmHg 68%
    06:00 +24°C° 0 mm 2 m/S 750 mmHg 62%
    07:00 +25°C° 0 mm 2 m/S 750 mmHg 57%
    08:00 +27°C° 0 mm 2 m/S 750 mmHg 52%
    09:00 +28°C° 0 mm 2 m/S 750 mmHg 47%
    10:00 +30°C° 0 mm 2 m/S 750 mmHg 42%
    11:00 +31°C° 0 mm 2 m/S 750 mmHg 39%
    12:00 +32°C° 0 mm 2 m/S 750 mmHg 36%
    13:00 +35°C° 0 mm 2 m/S 749 mmHg 33%
    14:00 +35°C° 0 mm 2 m/S 749 mmHg 32%
    15:00 +35°C° 0 mm 2 m/S 749 mmHg 31%
    16:00 +35°C° 0 mm 2 m/S 749 mmHg 30%
    17:00 +34°C° 0 mm 2 m/S 749 mmHg 35%
    18:00 +31°C° 0 mm 2 m/S 749 mmHg 41%
    19:00 +29°C° 0 mm 2 m/S 749 mmHg 46%
    20:00 +28°C° 0 mm 2 m/S 749 mmHg 51%
    21:00 +26°C° 0 mm 2 m/S 749 mmHg 57%
    22:00 +24°C° 0 mm 2 m/S 750 mmHg 62%
    23:00 +24°C° 0 mm 2 m/S 750 mmHg 64%
    Mehr zeigen